Starlink 31460

operational
NORAD ID: 59008 Int'l Des: 2024-036 Owner: SPXS Country: US Constellation: starlink
LEOCIRCULAR

关于 Starlink 31460

正在加载描述...

实时位置

正在加载3D地球...

即将过境

高度历史

Altitude vs Time

uPlot chart will show altitude changes over time

两行轨道根数

1 59008U 24036L 25304.77365679 .00006304 00000-0 22476-3 0 9998
2 59008 53.1599 317.0756 0001397 88.8506 271.2655 15.30203335 95580
Epoch: Oct 31, 2025 • Age: 17 hours

当前状态

高度 475.1 km
速度 7.63 km/s
星下点 13.63°N, 104.83°E
发射日期 Feb 23, 2024
运行时间 1.6 years
类型 internet

技术详情

分类 Payload
质量 730.00 kg
干质量 700.00 kg
总质量 730.00 kg
长度 0.30 m
直径 4.10 m
跨度 29.00 m
形状 Box + pan
制造商 SPXS
平台类型 Starlink V2M
阶段状态 In Orbit
所有者/国家 SPXS/US

大型星座

Loading constellations...